User: anonymous   Login
Location: Unspecified
(0.0000°N, 0.0000°E)
Time: 22:24:13
(UTC+00:00)
Language:

STARLINK-5856 - Orbit

View from above orbital plane
View from above orbital plane
View from above satellite
View from above satellite

Ground track
Ground track

The orbit is defined by the following mean orbital elements,

1 55914U          26145.33158047 +.00000000 +00000-0 +93298-5 0 00002
2 55914  69.9992 111.3691 0003399 268.4668  91.6102 14.98331862    00
Epoch (UTC): 25 May 2026 07:57:28
Eccentricity: 0.0003399
inclination: 69.9992°
perigee height: 570 km
apogee height: 574 km
right ascension of ascending node: 111.3691°
argument of perigee: 268.4668°
revolutions per day: 14.98331862
mean anomaly at epoch: 91.6102°

The dashed part of the orbit path shows where the satellite is in the earth's shadow,  

DLR